Home > Weather > Demmin > Past weeks

Flag for Germany Past Weather in Demmin, Mecklenburg-Western Pomerania, Germany — Yesterday and Last 2 Weeks

Now
68 °F

Rain showers. Fog.


Feels Like: 68 °F
Forecast: 52 / 69 °F
Wind: 2 mph from North

Location: Laage

Current Time: Jul 1, 2016 at 10:55:57 PM

Latest Report: Jul 1, 2016 at 10:20 PM


Visibility: 3 mi

Pressure: 29.89 "Hg

Humidity: 83%

Dew Point: 63 °F

Location of DemminLocation

Past Weather in Demmin — Graph

°F

Demmin Temperature Yesterday

Maximum temperature yesterday: 70 °F (at 1:20 PM)
Minimum temperature yesterday: 55 °F (at 12:20 AM)
Average temperature yesterday: 63 °F

High & Low Weather Summary for the Past Weeks

 TemperatureHumidityPressure
High88 °F (Jun 23, 3:20 PM)100% (Jun 20, 5:20 AM)30.24 "Hg (Jun 20, 5:20 AM)
Low46 °F (Jun 20, 5:20 AM)40% (Jun 24, 2:20 PM)29.53 "Hg (Jun 17, 5:20 AM)
Average65 °F75%29.96 "Hg
* Reported Jun 16 9:20 PM — Jul 1 9:20 PM, Demmin, Weather by CustomWeather, © 2016

Note: Actual official high and low records may vary slightly from our data, if they occured in-between our weather recording intervals... More about our weather records

Advertising

Demmin Weather History for the Previous 24 Hours

Scroll right to see more
 ConditionsComfort  
Time TempWeatherWind HumidityBarometerVisibility
9:20 PM
Fri, Jul 1
70 °FBroken clouds.1 mph83%29.89 "HgN/A
8:20 PM70 °FPartly sunny.1 mph78%29.89 "HgN/A
7:20 PM70 °FPartly sunny.3 mph78%29.89 "HgN/A
6:20 PM72 °FBroken clouds.8 mph73%29.89 "HgN/A
5:20 PM72 °FScattered clouds.10 mph73%29.89 "HgN/A
4:20 PM75 °FBroken clouds.15 mph54%29.89 "HgN/A
3:20 PM77 °FBroken clouds.12 mph51%29.89 "HgN/A
2:20 PM75 °FScattered clouds.14 mph57%29.89 "HgN/A
1:20 PM73 °FScattered clouds.13 mph57%29.89 "HgN/A
12:20 PM70 °FPartly sunny.9 mph69%29.89 "HgN/A
11:20 AM72 °FBroken clouds.14 mph61%29.89 "HgN/A
10:20 AM72 °FPassing clouds.14 mph61%29.89 "HgN/A
9:20 AM68 °FPassing clouds.13 mph73%29.89 "HgN/A
8:20 AM66 °FScattered clouds.12 mph78%29.89 "HgN/A
7:20 AM64 °FPartly sunny.8 mph78%29.89 "HgN/A
6:20 AM63 °FBroken clouds.5 mph83%29.86 "HgN/A
5:20 AM63 °FPartly cloudy.5 mph83%29.86 "HgN/A
4:20 AM63 °FPassing clouds.5 mph83%29.89 "HgN/A
3:20 AM63 °FPassing clouds.5 mph83%29.86 "HgN/A
2:20 AM63 °FPassing clouds.3 mph83%29.89 "HgN/A
1:20 AM61 °FPassing clouds.5 mph88%29.89 "HgN/A
12:20 AM61 °FPassing clouds.3 mph88%29.92 "HgN/A
11:20 PM
Thu, Jun 30
61 °FPassing clouds.5 mph88%29.92 "HgN/A
10:20 PM61 °FBroken clouds.3 mph88%29.92 "HgN/A
Weather by CustomWeather, © 2016

See weather overviewHow to use our weather pages